Hourly Data Report for October 24, 2013

All times are specified in Local Standard Time (LST). Add 1 hour to adjust for Daylight Saving Time where and when it is observed.

FORT LIARD
NORTHWEST TERRITORIES

60°14'00.000" N
123°28'00.000" W
213.40 m
2201579
71497
WJL

Download Data

Hourly Data (October 2013)
Hourly Data Report for October 24, 2013
Temp Definition
°C
Dew Point Temp Definition
°C
Rel Hum Definition
%
Wind Dir Definition
10's deg

Wind Spd Definition
km/h
Visibility Definition
km
Stn Press Definition
kPa
Hmdx Definition


Wind Chill Definition


Weather Definition


TIME
00:00 0.6 0.1 96 23 7   98.36     LegendNANA
01:00 0.8 0.3 96 21 9   98.26     LegendNANA
02:00 0.9 0.2 95 21 9   98.18     LegendNANA
03:00 0.4 -0.1 96 22 11   98.10     LegendNANA
04:00 0.3 -0.2 96 22 11   98.05     LegendNANA
05:00 0.7 0.0 95 24 7   98.04     LegendNANA
06:00 0.8 0.0 94 23 9   98.07     LegendNANA
07:00 0.3 -0.4 95 23 13   98.02     LegendNANA
08:00 1.4 0.1 91 24 20   97.98     LegendNANA
09:00 0.8 -0.2 93 22 24   98.06     LegendNANA
10:00 3.0 0.9 86 23 19   98.16     LegendNANA
11:00 9.2 2.1 61 24 19   98.24     LegendNANA
12:00 11.7 1.3 49 25 19   98.39     LegendNANA
13:00 6.1 0.5 67 4 28   98.63     LegendNANA
14:00 5.5 -0.3 66 3 24   98.88     LegendNANA
15:00 4.9 0.1 71 5 19   99.06     LegendNANA
16:00 4.5 0.3 74 7 17   99.20     LegendNANA
17:00 4.4 -0.1 73 8 13   99.31     LegendNANA
18:00 3.6 -0.2 76 9 11   99.38     LegendNANA
19:00 2.4 -0.8 79 7 6   99.43     LegendNANA
20:00 0.6 -1.2 88   0   99.49     LegendNANA
21:00 -1.2 -2.3 92   0   99.52     LegendNANA
22:00 -1.7 -2.9 91 22 7   99.64   -4 LegendNANA
23:00 -1.9 -3.1 91 22 4   99.73   -3 LegendNANA

Notes on Data Quality.

Legend

  • E = Estimated
  • M = Missing
  • NA = Not Available
  • ‡ = Partner data that is not subject to review by the National Climate Archives
Date modified: